Location: Brede
(50.9167°N, 0.6000°E)
Time: 19:55:06
(UTC+00:00)

Vanguard 1 Rocket - Pass Details

Date: 02 December 2020
Orbit: 655 x 4221 km, 34.3° (Epoch: 17 January)

Event Time Altitude Azimuth Distance (km) Brightness Sun altitude
Rises 22:01:12 0° 196° (SSW) 7,543 11.9 -54.6°
Enters shadow 22:02:29 - 194° (SSW) 7,406 11.8 -54.7°
Exits shadow 22:45:16 - 89° (E) 7,143 11.8 -58.8°
Sets 22:48:59 0° 82° (E) 7,547 12.0 -59.0°
